User: anonymous   Login
Location: Oshawa
(43.9000°N, 78.8670°W)
Time: 10:30:53
(UTC-05:00)
Language:

Iridium 46 - Orbit

View from above orbital plane
View from above orbital plane
View from above satellite
View from above satellite

Ground track
Ground track

The orbit data is extracted from the following two-line orbital elements,

1 24905U 97043C   18049.69852459  .00001513  00000-0  62487-4 0  9994
2 24905  86.3943 152.1404 0235538 341.2644  18.0021 15.01251372 73203
Epoch (UTC): 18 February 2018 16:45:52
Eccentricity: 0.0235538
inclination: 86.3943°
perigee height: 399 km
apogee height: 726 km
right ascension of ascending node: 152.1404°
argument of perigee: 341.2644°
revolutions per day: 15.01251372
mean anomaly at epoch: 18.0021°
orbit number at epoch: 7320

The dashed part of the orbit path shows where the satellite is in the earth's shadow,  

DLR